Wind_Speed
46 49 54 43 27 16 15 14 17 25 22 37 30 43 42 45 49 51 50 56 49 32 35 33 36 27 26 25 25 28 28 27 27 26 24 20 19 16 16 15 15 14 13 14 15 16 14 11 10
47 50 49 29 19 7 12 23 20 10 32 35 37 38 46 50 51 59 52 49 50 26 42 31 39 29 28 29 29 31 32 31 28 27 24 19 18 16 16 17 16 17 17 16 18 17 17 13 13
48 50 33 23 11 4 16 18 19 16 31 37 26 30 33 45 31 23 52 33 12 31 39 41 40 34 35 34 35 35 33 30 27 23 20 19 19 18 18 17 17 18 19 20 20 20 18 16 13
47 37 17 11 10 10 22 19 26 24 32 35 23 26 24 27 12 17 31 45 23 23 33 36 35 34 34 34 34 33 32 28 26 22 21 21 21 18 20 19 20 21 23 23 23 22 19 15 14
44 23 15 11 16 17 16 27 33 15 27 18 14 12 19 16 11 17 18 33 31 27 27 34 34 35 36 34 35 34 30 29 27 26 25 24 21 20 20 20 21 23 23 24 25 23 26 14 13
29 17 8 11 23 10 21 23 22 23 19 28 33 16 17 11 6 14 16 36 29 34 31 32 38 38 38 38 37 36 35 30 29 28 27 25 23 21 20 19 21 26 28 26 27 31 19 14 13
18 9 4 10 15 16 30 19 19 16 24 20 17 25 16 7 8 14 17 31 29 31 32 29 31 38 43 43 39 35 34 34 32 30 29 25 22 20 19 22 23 26 27 26 31 13 12 14 13
14 6 5 14 8 21 31 19 22 23 27 14 22 23 24 7 6 9 18 15 29 14 14 17 33 24 51 43 49 43 39 36 32 26 30 26 22 21 24 22 24 23 27 27 14 15 12 12 12
9 2 6 11 7 15 25 31 17 22 20 18 20 20 16 10 6 7 13 17 18 13 13 16 15 23 33 35 36 39 36 34 29 22 25 29 27 23 30 34 28 28 29 25 16 13 12 11 11
7 1 14 6 15 18 30 27 20 21 25 20 16 11 9 15 16 10 13 16 16 14 13 18 14 12 20 12 28 26 23 31 34 23 25 27 32 29 32 34 27 25 21 16 10 11 13 11 15
12 5 14 17 16 26 22 23 14 17 30 24 21 16 14 15 21 17 14 15 20 20 19 20 19 16 13 24 16 16 16 14 20 21 26 25 38 37 29 29 24 21 13 10 12 12 13 15 14
17 14 8 15 18 25 18 19 13 17 14 18 20 22 19 17 22 21 20 16 17 21 22 18 17 10 23 19 18 21 14 19 21 18 23 31 34 31 31 30 21 14 15 13 13 14 15 15 10
19 14 14 16 16 15 11 20 19 18 16 14 16 21 21 20 22 21 19 20 18 18 18 19 18 15 27 18 18 28 21 21 27 28 22 26 33 35 32 23 17 13 11 13 16 16 16 9 9
15 14 12 14 23 18 17 12 14 19 18 16 12 15 18 20 25 21 18 19 16 14 17 17 17 18 26 22 23 25 26 34 22 19 16 24 36 34 30 19 16 12 13 17 17 17 13 10 12
11 10 8 10 20 24 13 15 21 29 9 16 13 16 17 19 24 23 19 18 16 16 18 15 10 20 17 16 19 36 29 25 18 16 16 20 24 23 17 16 14 15 16 16 16 15 13 14 15
6 7 18 13 18 18 19 20 24 25 7 13 16 17 15 18 19 19 17 18 17 14 14 17 21 13 16 15 15 15 14 22 13 15 16 20 20 16 13 12 13 14 14 15 16 15 15 16 17
14 11 12 24 18 19 21 16 15 22 7 11 20 18 16 19 18 16 12 13 13 17 23 15 19 19 14 13 12 8 5 15 15 19 18 13 11 11 11 10 12 14 15 15 17 17 18 18 20
14 9 13 11 19 18 9 12 20 22 28 28 21 17 9 5 3 3 3 1 10 19 4 9 3 8 7 5 10 13 16 15 13 11 10 9 6 7 9 14 15 14 17 18 18 19 20 22 24
12 14 4 19 11 13 4 5 10 21 22 9 17 16 9 10 6 15 16 16 17 18 15 13 13 13 11 14 11 11 8 5 3 3 3 6 9 12 14 14 16 20 20 20 22 21 23 25 28
8 7 7 8 10 7 3 13 13 14 13 11 8 8 8 7 6 10 10 9 10 10 9 10 7 8 7 5 3 3 2 2 3 5 7 10 13 17 19 19 20 22 23 24 24 25 27 29 31
8 3 6 13 14 9 5 7 11 16 15 14 10 9 7 7 6 7 5 5 6 6 5 4 4 5 5 5 6 7 7 8 10 11 13 15 16 18 21 22 23 26 27 29 30 31 33 34 34
12 9 8 8 8 8 5 3 12 16 11 11 16 8 10 5 5 5 5 7 8 7 6 5 6 6 7 9 10 12 13 14 15 16 17 19 20 20 22 24 25 27 33 37 35 36 39 39 39
10 12 7 8 5 6 16 4 14 14 9 18 14 14 6 9 8 7 9 10 11 10 9 9 8 8 9 11 12 14 14 16 17 18 20 21 22 23 25 27 29 30 33 37 40 42 40 41 40
16 14 12 10 8 4 2 7 15 9 7 12 15 22 13 2 7 13 14 11 11 9 9 10 12 12 11 12 14 16 17 17 17 17 20 22 21 24 29 30 31 37 40 40 43 37 43 40 42
15 15 13 11 10 4 5 4 13 14 13 16 20 25 20 13 7 10 11 10 11 9 8 9 10 11 12 11 15 14 14 17 17 17 19 20 19 24 28 28 33 39 42 38 41 43 49 38 43
15 15 16 13 9 11 14 4 6 14 18 17 14 20 24 23 23 19 18 16 13 9 8 10 11 12 12 15 15 14 16 17 19 22 23 22 21 27 30 32 32 37 40 44 46 47 41 39 51
20 23 13 16 21 17 13 4 14 21 21 17 16 12 19 20 21 24 24 23 21 17 13 11 13 13 14 15 17 17 18 20 23 24 25 26 26 29 31 33 37 39 42 42 41 35 38 45 53
22 17 22 27 25 18 16 13 20 12 19 18 21 21 17 16 19 21 22 22 21 19 17 16 16 17 18 20 20 23 25 25 27 26 30 30 34 37 36 37 39 40 42 43 35 38 48 43 52
28 25 24 23 21 19 17 12 14 15 10 17 25 27 25 22 18 19 21 21 23 22 23 19 20 23 26 27 27 27 31 32 31 30 34 35 38 40 42 43 43 42 42 43 42 43 41 48 46
28 28 28 26 19 20 20 22 23 24 23 23 30 28 31 29 25 20 22 24 25 24 25 24 27 25 29 34 35 32 32 34 38 37 39 40 42 44 45 46 46 45 44 42 43 47 49 52 57
Wind_Direction
325 330 330 325 318 321 20 330 274 243 243 244 233 244 252 261 247 230 216 232 224 168 203 218 222 219 226 229 237 245 249 253 255 259 263 269 267 268 264 256 249 253 262 266 264 264 262 262 270
331 334 330 328 315 50 312 272 264 260 255 255 258 255 255 257 258 235 231 240 245 197 198 217 227 221 233 239 238 246 250 250 253 257 263 269 265 266 270 264 255 250 258 265 262 263 259 257 263
335 336 331 332 25 39 300 299 268 251 262 270 263 252 245 237 256 263 236 245 275 192 200 219 219 224 229 232 239 244 244 247 253 261 263 262 256 263 271 265 256 251 255 256 259 252 253 260 256
339 336 333 30 34 297 270 267 265 260 275 283 274 244 249 257 258 258 241 240 258 193 206 213 215 224 234 240 238 238 242 247 252 258 256 253 250 258 263 259 251 244 247 251 251 248 248 253 255
343 336 18 324 288 271 273 282 288 284 293 276 255 282 288 250 258 259 260 259 239 230 215 222 220 228 232 233 238 242 244 249 252 255 258 256 257 258 259 259 252 248 247 251 248 243 241 248 249
341 331 39 308 303 316 275 282 277 289 295 292 294 255 246 221 216 262 267 251 240 237 227 225 223 227 230 234 241 246 249 250 250 254 255 254 259 260 261 263 260 255 246 243 244 244 248 243 249
333 342 293 285 310 287 279 289 279 281 286 280 287 260 290 189 210 220 266 258 221 226 229 239 202 216 228 227 233 235 240 259 252 257 258 256 264 261 268 267 277 279 272 249 243 245 234 253 250
356 349 85 295 239 286 275 291 285 293 296 285 307 283 302 324 216 226 237 257 245 249 263 280 208 240 204 208 228 233 247 243 249 256 257 254 259 261 269 275 277 280 277 264 238 209 235 250 273
354 79 302 277 321 263 273 279 287 306 286 306 284 304 307 286 317 245 240 243 243 249 254 249 221 232 214 219 232 234 237 234 225 250 263 259 257 269 281 282 267 276 270 263 209 212 217 251 268
8 252 288 316 271 263 271 280 269 271 258 259 247 250 283 287 286 259 235 242 258 246 243 247 240 235 226 244 234 225 258 234 225 277 279 277 280 260 295 273 257 261 259 233 213 217 250 256 267
351 262 259 256 264 273 272 267 267 281 283 304 306 305 290 274 281 275 262 241 246 250 255 253 266 267 264 227 283 244 267 231 239 275 272 289 282 261 275 257 243 251 246 179 220 231 252 262 267
307 310 279 277 282 283 254 248 277 282 299 293 300 301 291 284 277 275 272 259 254 259 272 274 281 286 254 268 268 240 259 290 262 290 283 290 285 240 252 247 231 181 185 206 220 243 259 270 268
286 294 295 306 323 322 306 276 267 279 283 298 294 292 293 286 276 271 266 265 259 254 257 267 275 286 276 271 265 245 263 265 279 268 275 277 247 247 244 227 188 187 187 219 242 257 272 252 252
274 282 294 280 314 329 308 317 268 267 278 269 300 288 293 280 280 273 267 265 258 257 251 256 264 278 271 258 257 247 256 251 258 254 273 267 270 247 251 177 166 190 223 237 252 261 254 252 263
302 311 298 333 302 315 314 333 293 300 245 305 318 303 306 289 270 272 265 259 257 257 256 244 253 284 262 266 273 252 268 248 239 269 273 250 247 205 175 160 187 220 234 248 249 245 244 256 269
30 37 346 329 335 335 345 329 323 319 250 325 313 303 304 303 290 273 259 255 255 248 245 231 225 269 274 263 272 259 261 269 254 248 227 186 166 153 170 196 221 239 245 243 240 244 255 264 277
359 12 292 315 328 339 311 310 331 308 80 326 324 306 311 300 296 301 280 255 246 240 235 240 259 258 261 259 270 260 184 156 160 140 140 151 168 181 204 221 246 254 239 240 243 252 262 275 285
285 339 278 270 303 335 336 294 299 318 335 330 322 298 299 315 330 93 108 148 236 241 243 238 216 214 241 193 117 118 115 113 124 138 158 169 194 212 237 249 250 248 241 247 256 266 275 285 293
266 237 261 277 316 324 318 332 331 331 317 28 20 32 53 40 103 85 91 91 78 86 107 119 142 126 106 90 97 105 109 106 100 133 221 244 251 265 264 267 257 243 249 259 267 274 284 290 291
288 229 176 233 244 301 355 354 307 2 1 3 10 35 36 14 32 39 63 67 88 83 80 79 82 92 94 84 69 47 26 5 313 286 277 271 271 274 270 266 256 249 259 265 271 279 282 286 294
271 305 213 264 274 268 288 221 279 307 354 357 11 13 11 32 47 38 24 47 56 66 71 65 39 46 31 12 357 344 334 321 306 293 290 287 283 274 269 266 260 266 270 275 277 281 283 287 292
250 273 259 230 254 302 341 263 298 277 281 4 355 10 360 358 46 33 33 26 22 18 16 358 10 3 350 343 331 322 320 312 305 301 296 293 287 279 269 264 264 268 278 280 280 283 284 283 287
252 257 213 212 259 285 295 2 271 282 294 305 332 334 5 343 344 357 356 1 354 345 337 334 330 325 319 313 307 304 305 301 300 294 288 289 288 286 276 274 273 276 285 286 287 271 282 285 289
235 251 225 233 234 287 211 294 278 274 194 268 304 302 317 331 311 309 316 325 316 311 319 320 317 309 309 304 307 302 300 299 296 298 295 292 291 289 274 266 275 281 281 286 286 287 289 285 285
224 237 216 240 248 338 282 238 268 323 315 288 289 291 305 301 298 292 295 305 302 293 293 314 319 313 300 295 304 297 287 288 289 283 292 296 315 303 308 301 287 280 279 278 284 287 270 285 298
216 222 217 250 217 245 255 239 236 235 276 299 300 270 279 293 294 295 291 292 286 279 264 285 293 292 281 278 271 268 273 274 282 291 298 299 298 301 306 304 301 301 302 299 294 300 281 287 304
208 224 220 247 265 225 259 200 307 256 257 261 299 286 270 281 284 288 288 289 291 290 280 265 275 286 287 280 282 278 275 278 279 283 286 285 292 301 300 300 303 302 302 300 283 298 281 271 304
208 218 226 225 235 241 242 253 234 282 283 270 294 281 300 288 277 276 279 280 284 285 283 284 283 281 278 279 277 279 280 277 277 279 284 290 297 297 298 298 299 301 300 297 302 288 293 288 292
220 215 222 236 239 250 246 238 285 255 241 278 280 288 289 295 284 278 266 269 279 283 286 284 280 283 285 284 285 281 283 284 280 278 281 291 294 295 297 298 299 300 300 298 290 300 298 291 289
230 221 229 236 232 248 243 214 236 250 262 273 282 282 288 287 282 274 275 265 267 272 273 278 279 276 278 284 285 278 279 281 282 287 288 290 293 294 296 298 300 299 300 299 297 295 292 289 291
Height
5798 5793 5788 5784 5782 5777 5776 5781 5786 5782 5778 5777 5781 5781 5781 5781 5775 5779 5783 5777 5776 5760 5792 5804 5810 5812 5813 5814 5815 5818 5820 5821 5821 5822 5824 5825 5826 5827 5829 5829 5829 5830 5831 5831 5831 5832 5831 5831 5832
5793 5788 5783 5777 5777 5774 5780 5778 5779 5778 5773 5774 5777 5777 5777 5768 5765 5770 5781 5778 5767 5771 5783 5797 5803 5807 5809 5809 5810 5813 5814 5815 5817 5818 5819 5821 5822 5823 5824 5824 5825 5826 5827 5827 5828 5828 5829 5829 5830
5787 5783 5777 5774 5773 5776 5780 5775 5772 5774 5765 5767 5770 5767 5766 5752 5763 5769 5779 5775 5752 5775 5786 5793 5797 5798 5801 5802 5804 5806 5808 5809 5811 5813 5815 5817 5818 5818 5819 5820 5821 5822 5823 5823 5824 5825 5826 5827 5828
5783 5779 5777 5775 5776 5779 5778 5774 5768 5771 5764 5764 5757 5758 5761 5757 5761 5764 5772 5773 5771 5775 5782 5784 5788 5792 5794 5795 5797 5799 5802 5804 5806 5808 5811 5812 5813 5814 5814 5815 5816 5818 5818 5819 5821 5822 5822 5825 5825
5779 5774 5773 5773 5775 5775 5774 5771 5768 5761 5763 5760 5749 5751 5756 5759 5757 5762 5767 5766 5768 5772 5779 5781 5783 5785 5786 5789 5791 5794 5797 5800 5802 5805 5807 5808 5809 5810 5810 5811 5812 5813 5815 5816 5818 5819 5817 5821 5822
5774 5772 5774 5777 5776 5773 5769 5768 5768 5764 5761 5754 5746 5753 5751 5754 5753 5757 5760 5758 5768 5771 5770 5765 5775 5778 5779 5783 5787 5791 5794 5797 5799 5801 5803 5804 5805 5806 5808 5808 5809 5810 5809 5811 5813 5813 5816 5820 5819
5773 5771 5773 5776 5778 5776 5767 5765 5765 5760 5757 5754 5757 5752 5748 5746 5752 5755 5756 5757 5766 5763 5766 5761 5767 5762 5770 5774 5779 5784 5789 5792 5795 5797 5798 5800 5802 5803 5803 5804 5805 5806 5806 5806 5808 5811 5816 5818 5817
5769 5770 5771 5773 5771 5774 5766 5762 5759 5758 5757 5755 5749 5748 5740 5736 5750 5755 5755 5757 5759 5758 5764 5769 5770 5753 5754 5768 5771 5777 5783 5786 5790 5793 5794 5795 5797 5798 5799 5800 5801 5803 5803 5803 5805 5810 5813 5815 5815
5769 5770 5770 5770 5771 5768 5765 5759 5760 5760 5758 5755 5748 5747 5751 5752 5750 5752 5753 5755 5756 5758 5760 5764 5770 5762 5759 5762 5769 5776 5778 5780 5783 5786 5788 5789 5791 5793 5794 5794 5796 5798 5799 5801 5803 5807 5810 5813 5814
5769 5768 5769 5769 5769 5767 5763 5762 5760 5760 5749 5739 5735 5736 5747 5744 5748 5749 5750 5751 5751 5756 5758 5759 5762 5764 5765 5765 5767 5769 5774 5778 5778 5780 5783 5783 5785 5786 5788 5789 5791 5794 5797 5798 5802 5806 5809 5810 5810
5767 5768 5769 5766 5765 5761 5759 5760 5757 5753 5746 5747 5742 5739 5745 5746 5747 5749 5748 5749 5749 5749 5753 5756 5759 5759 5756 5758 5764 5767 5767 5774 5776 5778 5776 5776 5779 5780 5784 5786 5787 5791 5796 5799 5802 5804 5806 5807 5806
5768 5766 5765 5764 5761 5757 5756 5756 5755 5752 5746 5749 5743 5739 5742 5741 5745 5744 5742 5746 5748 5748 5749 5750 5753 5753 5746 5754 5758 5761 5766 5767 5771 5772 5771 5771 5772 5775 5779 5781 5785 5790 5794 5797 5800 5801 5803 5803 5802
5766 5763 5763 5760 5756 5754 5751 5753 5754 5751 5745 5747 5743 5738 5735 5735 5736 5740 5741 5742 5745 5746 5748 5750 5752 5753 5754 5755 5757 5759 5761 5765 5766 5769 5768 5770 5771 5771 5774 5777 5783 5788 5792 5795 5798 5798 5798 5798 5799
5762 5760 5759 5756 5756 5753 5750 5750 5746 5746 5744 5745 5740 5738 5736 5732 5729 5734 5736 5738 5741 5744 5746 5748 5749 5749 5751 5748 5753 5756 5757 5760 5763 5764 5765 5767 5767 5769 5773 5775 5781 5787 5790 5793 5795 5795 5795 5795 5796
5759 5758 5756 5756 5756 5753 5746 5747 5744 5742 5727 5738 5735 5735 5736 5732 5730 5730 5733 5737 5739 5742 5742 5745 5745 5746 5748 5751 5751 5752 5754 5757 5757 5760 5762 5765 5767 5769 5771 5775 5780 5784 5787 5790 5790 5790 5791 5791 5793
5758 5756 5755 5756 5754 5752 5747 5748 5745 5741 5741 5737 5736 5735 5735 5732 5729 5728 5732 5734 5735 5738 5739 5737 5742 5744 5746 5747 5747 5749 5752 5753 5755 5757 5760 5764 5766 5769 5772 5776 5779 5782 5783 5786 5786 5787 5788 5788 5787
5755 5756 5756 5753 5753 5749 5751 5749 5746 5733 5729 5738 5734 5735 5734 5732 5728 5726 5726 5729 5732 5733 5737 5738 5740 5741 5743 5744 5745 5746 5748 5753 5753 5756 5760 5765 5768 5770 5775 5776 5778 5779 5781 5782 5783 5782 5783 5782 5782
5755 5757 5756 5757 5753 5752 5749 5750 5743 5737 5732 5738 5732 5730 5735 5732 5730 5728 5728 5730 5733 5733 5733 5735 5738 5741 5743 5743 5744 5745 5749 5752 5756 5760 5765 5767 5769 5772 5773 5775 5776 5775 5777 5778 5778 5778 5778 5777 5776
5756 5754 5756 5755 5753 5752 5749 5748 5744 5743 5742 5739 5734 5732 5732 5733 5733 5730 5731 5731 5732 5732 5734 5737 5741 5742 5745 5744 5748 5751 5755 5759 5760 5763 5765 5767 5768 5769 5771 5772 5773 5773 5773 5773 5774 5773 5771 5770 5770
5754 5752 5753 5754 5753 5751 5748 5747 5745 5746 5744 5743 5740 5737 5737 5736 5735 5735 5736 5736 5736 5738 5739 5741 5745 5745 5747 5749 5752 5754 5756 5757 5760 5763 5763 5766 5766 5767 5768 5769 5769 5769 5769 5768 5767 5766 5765 5763 5762
5751 5750 5750 5751 5750 5749 5747 5745 5745 5743 5744 5742 5743 5740 5738 5738 5737 5737 5738 5740 5741 5741 5743 5745 5746 5745 5747 5749 5751 5753 5754 5757 5759 5761 5762 5762 5763 5764 5764 5764 5765 5764 5763 5763 5762 5760 5758 5756 5755
5749 5749 5748 5748 5747 5747 5746 5745 5743 5743 5743 5743 5741 5742 5742 5740 5740 5740 5740 5740 5741 5742 5743 5745 5745 5746 5748 5748 5750 5752 5753 5755 5756 5758 5758 5759 5760 5760 5760 5760 5760 5760 5758 5757 5756 5753 5751 5749 5748
5746 5746 5745 5745 5745 5745 5744 5743 5744 5741 5740 5739 5742 5741 5742 5742 5740 5741 5742 5742 5743 5744 5744 5745 5745 5746 5748 5748 5750 5751 5752 5753 5754 5754 5756 5755 5756 5756 5755 5755 5755 5755 5753 5750 5749 5746 5743 5741 5738
5741 5743 5743 5743 5743 5744 5745 5746 5743 5740 5742 5741 5739 5740 5740 5740 5742 5741 5740 5742 5742 5743 5743 5744 5744 5745 5746 5747 5747 5748 5749 5749 5750 5751 5749 5750 5751 5751 5748 5747 5748 5748 5746 5744 5741 5739 5735 5732 5729
5737 5739 5740 5740 5740 5742 5742 5744 5744 5743 5741 5743 5742 5738 5738 5738 5740 5740 5740 5740 5740 5741 5741 5742 5743 5744 5744 5746 5746 5747 5747 5746 5747 5747 5747 5747 5746 5746 5743 5741 5742 5741 5738 5735 5731 5729 5724 5723 5720
5733 5735 5736 5736 5738 5741 5739 5742 5745 5742 5740 5741 5740 5740 5737 5737 5736 5737 5736 5737 5739 5739 5739 5740 5740 5741 5742 5742 5743 5744 5743 5744 5743 5741 5741 5741 5741 5741 5738 5736 5734 5732 5728 5725 5723 5720 5716 5715 5711
5729 5729 5735 5736 5734 5736 5737 5738 5742 5736 5735 5736 5736 5734 5733 5733 5734 5733 5734 5733 5734 5735 5736 5736 5736 5737 5737 5737 5737 5739 5739 5738 5737 5737 5737 5735 5734 5733 5732 5729 5726 5722 5719 5716 5711 5709 5706 5702 5702
5721 5727 5729 5729 5730 5731 5733 5736 5735 5733 5731 5731 5731 5730 5731 5730 5730 5731 5730 5730 5730 5730 5732 5733 5732 5732 5733 5733 5733 5732 5732 5731 5731 5731 5728 5728 5726 5725 5722 5721 5718 5714 5710 5707 5703 5700 5698 5694 5690
5717 5718 5721 5724 5725 5726 5728 5732 5727 5729 5727 5726 5727 5726 5726 5726 5727 5727 5728 5727 5726 5726 5723 5727 5729 5727 5726 5726 5727 5727 5724 5723 5723 5723 5721 5720 5718 5715 5713 5711 5708 5705 5701 5697 5694 5691 5686 5683 5678
5711 5713 5716 5718 5721 5722 5723 5725 5727 5726 5724 5724 5722 5723 5721 5720 5720 5722 5724 5725 5724 5724 5722 5720 5723 5723 5722 5720 5718 5720 5718 5715 5713 5713 5712 5711 5708 5706 5703 5700 5698 5694 5691 5687 5684 5681 5678 5673 5667